College Park, MD

2:51 PM EDT on September 21, 2017 (GMT -0400)
College Park

Weather History for KCGS - August, 2013

Change the Weather History Date:

Monday, August 5, 2013

  Actual Average Record
Temperature  
Mean Temperature 70 °F -  
Max Temperature 82 °F 88 °F 99 °F (1987)
Min Temperature 58 °F 68 °F 50 °F (1951)
Cooling Degree Days 5    
Growing Degree Days 20 (Base 50)    
Moisture  
Dew Point 58 °F    
Average Humidity 69    
Maximum Humidity 100    
Minimum Humidity 34    
Precipitation  
Precipitation 0.00 in - - ()
Sea Level Pressure  
Sea Level Pressure 30.06 in    
Wind  
Wind Speed 1 mph (NNW)    
Max Wind Speed 7 mph    
Max Gust Speed -    
Visibility 10 miles    
Events      
Averages and records for this station are not official NWS values.
T = Trace of Precipitation, MM = Missing Value Source: NWS Daily Summary

Daily Weather History Graph

Daily Weather History Graph

Search for Another Location

Airport or City:

Trip Planner

Search our weather history database for the weather conditions in past years. The results will help you decide how hot, cold, wet, or windy it might be!

Date:

Astronomy

Aug. 05, 2013 Rise Set
Actual Time 6:12 AM EDT 8:14 PM EDT
Civil Twilight 5:42 AM EDT 8:43 PM EDT
Nautical Twilight 5:07 AM EDT 9:19 PM EDT
Astronomical Twilight 4:28 AM EDT 9:58 PM EDT
Moon 5:05 AM EDT (8/5) 7:13 PM EDT (8/5)
Length of Visible Light 15h 00m
Length of Day
14h 02m
Waning Crescent, 1% of the Moon is Illuminated
Aug 5
Waning Crescent
Aug 6
New
Aug 14
First Quarter
Aug 20
Full
Aug 28
Last Quarter

Hourly Weather History & Observations

Time (EDT) Temp. Heat Index Dew Point Humidity Pressure Visibility Wind Dir Wind Speed Gust Speed Precip Events Conditions
12:00 AM 62.2 °F - 60.3 °F 93% 30.04 in 10.0 mi Calm Calm - N/A   Clear
12:20 AM 62.1 °F - 60.3 °F 94% 30.04 in 10.0 mi Calm Calm - N/A   Clear
12:40 AM 61.5 °F - 60.4 °F 96% 30.03 in 10.0 mi Calm Calm - N/A   Clear
1:00 AM 61.7 °F - 60.3 °F 95% 30.03 in 10.0 mi Calm Calm - N/A   Clear
1:20 AM 61.9 °F - 59.5 °F 92% 30.03 in 10.0 mi Calm Calm - N/A   Clear
1:40 AM 60.8 °F - 59.9 °F 97% 30.03 in 10.0 mi Calm Calm - N/A   Clear
2:00 AM 60.8 °F - 59.9 °F 97% 30.02 in 10.0 mi Calm Calm - N/A   Clear
2:20 AM 60.8 °F - 59.5 °F 96% 30.03 in 10.0 mi Calm Calm - N/A   Clear
2:40 AM 60.8 °F - 59.5 °F 96% 30.03 in 10.0 mi Calm Calm - N/A   Clear
3:00 AM 60.3 °F - 59.4 °F 97% 30.04 in 10.0 mi Calm Calm - N/A   Clear
3:15 AM 60.3 °F - 59.4 °F 97% 30.04 in 10.0 mi Calm Calm - N/A   Clear
3:40 AM 59.9 °F - 59.4 °F 98% 30.05 in 10.0 mi Calm Calm - N/A   Clear
4:00 AM 59.7 °F - 59.0 °F 97% 30.05 in 10.0 mi Calm Calm - N/A   Clear
4:15 AM 59.0 °F - 58.6 °F 99% 30.05 in 10.0 mi Calm Calm - N/A   Clear
4:40 AM 59.0 °F - 58.6 °F 99% 30.05 in 10.0 mi Calm Calm - N/A   Clear
5:00 AM 58.6 °F - 58.5 °F 99% 30.06 in 10.0 mi Calm Calm - N/A   Clear
5:20 AM 58.3 °F - 58.3 °F 100% 30.06 in 10.0 mi Calm Calm - N/A   Clear
5:40 AM 58.1 °F - 58.1 °F 100% 30.07 in 10.0 mi Calm Calm - N/A   Clear
6:00 AM 58.1 °F - 58.1 °F 100% 30.07 in 10.0 mi Calm Calm - N/A   Clear
6:20 AM 58.1 °F - 58.1 °F 100% 30.08 in 10.0 mi Calm Calm - N/A   Clear
6:40 AM 58.3 °F - 58.3 °F 100% 30.08 in 10.0 mi Calm Calm - N/A   Clear
7:00 AM 59.2 °F - 58.6 °F 98% 30.09 in 10.0 mi Calm Calm - N/A   Clear
7:20 AM 60.8 °F - 60.1 °F 97% 30.09 in 10.0 mi Calm Calm - N/A   Clear
7:40 AM 64.4 °F - 59.4 °F 84% 30.10 in 10.0 mi Calm Calm - N/A   Clear
8:00 AM 65.8 °F - 59.4 °F 80% 30.10 in 10.0 mi Calm Calm - N/A   Clear
8:20 AM 68.2 °F - 60.3 °F 76% 30.10 in 10.0 mi Calm Calm - N/A   Clear
8:40 AM 70.0 °F - 59.9 °F 70% 30.10 in 10.0 mi Calm Calm - N/A   Clear
9:00 AM 70.7 °F - 58.6 °F 66% 30.10 in 10.0 mi Calm Calm - N/A   Clear
9:20 AM 72.1 °F - 57.6 °F 60% 30.11 in 10.0 mi NNE 3.5 mph - N/A   Clear
9:40 AM 73.0 °F - 57.0 °F 57% 30.11 in 10.0 mi North 3.5 mph - N/A   Clear
10:00 AM 73.6 °F - 57.9 °F 58% 30.10 in 10.0 mi Calm Calm - N/A   Clear
10:20 AM 74.5 °F - 56.8 °F 54% 30.10 in 10.0 mi Calm Calm - N/A   Clear
10:40 AM 74.8 °F - 58.5 °F 57% 30.10 in 10.0 mi East 3.5 mph - N/A   Clear
11:00 AM 76.5 °F - 57.2 °F 51% 30.10 in 10.0 mi ESE 3.5 mph - N/A   Clear
11:20 AM 75.7 °F - 57.7 °F 53% 30.10 in 10.0 mi Calm Calm - N/A   Mostly Cloudy
11:40 AM 77.9 °F - 57.4 °F 49% 30.10 in 10.0 mi North 3.5 mph - N/A   Mostly Cloudy
12:00 PM 77.7 °F - 55.9 °F 47% 30.10 in 10.0 mi Calm Calm - N/A   Mostly Cloudy
12:20 PM 76.6 °F - 55.4 °F 48% 30.09 in 10.0 mi Calm Calm - N/A   Mostly Cloudy
12:40 PM 78.6 °F - 55.4 °F 45% 30.08 in 10.0 mi SE 3.5 mph - N/A   Scattered Clouds
1:00 PM 79.2 °F - 54.0 °F 42% 30.08 in 10.0 mi West 4.6 mph - N/A   Mostly Cloudy
1:20 PM 79.2 °F - 54.1 °F 42% 30.07 in 10.0 mi West 3.5 mph - N/A   Scattered Clouds
1:40 PM 79.7 °F - 55.2 °F 43% 30.07 in 10.0 mi Calm Calm - N/A   Scattered Clouds
2:00 PM 79.0 °F - 55.0 °F 44% 30.06 in 10.0 mi Calm Calm - N/A   Mostly Cloudy
2:20 PM 78.4 °F - 53.8 °F 42% 30.05 in 10.0 mi Calm Calm - N/A   Overcast
2:40 PM 78.4 °F - 55.0 °F 44% 30.04 in 10.0 mi East 3.5 mph - N/A   Mostly Cloudy
3:00 PM 80.8 °F 80.6 °F 55.0 °F 41% 30.04 in 10.0 mi Calm Calm - N/A   Scattered Clouds
3:20 PM 81.3 °F - 52.0 °F 36% 30.03 in 10.0 mi Calm Calm - N/A   Mostly Cloudy
3:40 PM 81.9 °F - 50.5 °F 34% 30.03 in 10.0 mi North 3.5 mph - N/A   Mostly Cloudy
3:55 PM 82.0 °F - 50.7 °F 34% 30.02 in 10.0 mi NNW 5.8 mph - N/A   Scattered Clouds
4:20 PM 82.4 °F - 51.3 °F 34% 30.02 in 10.0 mi WSW 4.6 mph - N/A   Clear
4:40 PM 82.6 °F - 52.2 °F 35% 30.02 in 10.0 mi NW 5.8 mph - N/A   Scattered Clouds
5:00 PM 82.0 °F - 52.2 °F 35% 30.02 in 10.0 mi WNW 5.8 mph - N/A   Scattered Clouds
5:20 PM 81.9 °F - 52.0 °F 35% 30.02 in 10.0 mi NW 5.8 mph - N/A   Clear
5:40 PM 82.2 °F - 52.5 °F 36% 30.02 in 10.0 mi WNW 4.6 mph - N/A   Scattered Clouds
6:00 PM 80.8 °F - 52.2 °F 37% 30.02 in 10.0 mi WNW 5.8 mph - N/A   Scattered Clouds
6:20 PM 80.2 °F - 51.8 °F 37% 30.02 in 10.0 mi NW 4.6 mph - N/A   Scattered Clouds
6:40 PM 80.6 °F 80.3 °F 53.4 °F 39% 30.03 in 10.0 mi NNW 6.9 mph - N/A   Clear
7:00 PM 78.8 °F - 52.3 °F 40% 30.03 in 10.0 mi NNW 4.6 mph - N/A   Clear
7:15 PM 77.9 °F - 56.1 °F 47% 30.04 in 10.0 mi North 3.5 mph - N/A   Clear
7:40 PM 75.4 °F - 59.0 °F 57% 30.04 in 10.0 mi Calm Calm - N/A   Clear
8:00 PM 74.3 °F - 61.3 °F 64% 30.05 in 10.0 mi East 3.5 mph - N/A   Clear
8:20 PM 73.6 °F - 61.3 °F 65% 30.04 in 10.0 mi Calm Calm - N/A   Clear
8:40 PM 73.4 °F - 61.0 °F 65% 30.04 in 10.0 mi Calm Calm - N/A   Clear
9:00 PM 72.1 °F - 61.7 °F 70% 30.04 in 10.0 mi Calm Calm - N/A   Clear
9:20 PM 70.5 °F - 61.9 °F 74% 30.04 in 10.0 mi Calm Calm - N/A   Clear
9:40 PM 69.4 °F - 62.1 °F 77% 30.04 in 10.0 mi Calm Calm - N/A   Clear
10:00 PM 69.3 °F - 62.4 °F 79% 30.03 in 10.0 mi Calm Calm - N/A   Clear
10:20 PM 69.1 °F - 63.0 °F 81% 30.02 in 10.0 mi Calm Calm - N/A   Clear
10:35 PM 68.9 °F - 63.7 °F 83% 30.03 in 10.0 mi Calm Calm - N/A   Clear
11:00 PM 68.9 °F - 63.1 °F 82% 30.04 in 10.0 mi Calm Calm - N/A   Clear
11:20 PM 68.0 °F - 62.8 °F 83% 30.03 in 10.0 mi Calm Calm - N/A   Clear
11:40 PM 66.7 °F - 62.8 °F 87% 30.04 in 10.0 mi Calm Calm - N/A   Clear